Tracking 32577 objects as of 14-Dec-2025
HD Live streaming from Space Station
objects crossing your sky now

DELTA 1 DEB

Track DELTA 1 DEB now!
10-day predictions


NORAD ID: 5971
Int'l Code: 1967-006E
Perigee: 1,287.4 km
Apogee: 1,462.5 km
Inclination: 101.9 °
Period: 113.1 minutes
Semi major axis: 7745 km
RCS: 0.0243 m2 (small)
Launch date: January 26, 1967
Source: United States (US)
Launch site: AIR FORCE WESTERN TEST RANGE (AFWTR)

Note: This is SATELLITE DEBRIS
Your satellite tracking list
Your tracking list is empty




NASA's NSSDC Master Catalog

Two Line Element Set (TLE):
1 05971U 67006E   25348.29778758 -.00000014  00000-0  16583-3 0  9998
2 05971 101.9327 279.4510 0113059 337.5141 177.8487 12.73477865737557
Source of the keplerian elements: AFSPC